[[{"header":{"parameterUnit":"m.s-1","parameterCategory":2,"la1":30.2992,"la2":30.254,"lo1":-89.0895,"lo2":-89.0443,"dy":0.0025,"dx":0.0025,"nx":19,"ny":19,"refTime":"2026-04-27T21:00:00:Z","depth":"0","parameterNumber":2,"parameterNumberName":"U-component_of_CURRENTS"},"data":[0,0,0,0.1223,0.1225,0.1307,0.1307,0.1213,0.1212,0,0,0,0,0,0,0,0,0,0,0,0.1187,0.1188,0.1223,0.1226,0.1307,0.1307,0.1213,0.1212,0,0,0,0,0,0,0,0,0,0,0,0.1187,0.1188,0.1189,0.1226,0.1307,0.1307,0.1214,0.1197,0,0,0,0,0,0,0,0,0,0,0.1141,0.1144,0.1187,0.1189,0.1227,0.1307,0.1307,0.1198,0.1198,0.1125,0,0.1152,0,0.1186,0.1203,0.1202,0,0,0,0.1208,0.1145,0.1169,0.1189,0.1228,0.1307,0.1265,0.12,0.1199,0.1124,0.1151,0.115,0.1185,0.1202,0.1201,0.1072,0.1072,0,0,0.1204,0.119,0.1171,0.117,0.1263,0.1263,0.1268,0.1201,0.1199,0.1151,0.1148,0.1183,0.1201,0.12,0.1073,0.1072,0,0,0,0.1203,0.1187,0.1217,0.1172,0.1207,0.1266,0.1272,0.1203,0.1215,0.1148,0.1182,0.12,0.1198,0.1073,0.1072,0.1215,0,0,0,0.1199,0.1188,0.1215,0.1206,0.121,0.1234,0.1274,0.1219,0.1214,0.1182,0.12,0.1197,0.1074,0.1073,0.1212,0.1278,0,0,0,0.1181,0.1186,0.1201,0.1206,0.1251,0.1237,0.1245,0.122,0.1233,0.1202,0.1197,0.1074,0.1073,0.121,0.1272,0.1413,0,0,0,0.1154,0.1186,0.1201,0.1246,0.1251,0.1288,0.1247,0.1258,0.1238,0.1199,0.1073,0.1073,0.1209,0.1269,0.1407,0.1436,0.1462,0,0,0.1178,0.1188,0.1216,0.1233,0.1296,0.1275,0.1296,0.1253,0.1189,0.1079,0.1078,0.1213,0.1272,0.1411,0.1383,0.1412,0,0,0,0.1213,0.1234,0.1255,0.13,0.1323,0.1337,0.1297,0.1264,0.1213,0.1178,0.1154,0.1185,0.1271,0.1274,0.1295,0.1309,0.1068,0.1068,0.1069,0.1208,0.1247,0.1294,0.1336,0.1357,0.1361,0.1371,0.1303,0.1231,0.122,0.1259,0.1398,0.1397,0.1415,0.1426,0.1205,0.1205,0.1206,0.1206,0.1241,0.1268,0.1318,0.1375,0.1398,0.1404,0.14,0.1386,0.142,0.1304,0.1383,0.1367,0.1448,0.145,0.1214,0.1213,0.1212,0.1211,0.121,0.1224,0.1243,0.1288,0.1363,0.1418,0.144,0.1518,0.1537,0.1542,0.1624,0.1654,0.1651,0.1699,0.1688,0.1689,0.169,0.1691,0.1691,0.1692,0.118,0.123,0.127,0.1352,0.1398,0.1487,0.1599,0.1676,0.1801,0.1805,0.1806,0.1727,0.1546,0.1579,0.1706,0.1703,0.1701,0.17,0.1699,0.1169,0.1177,0.1237,0.1285,0.1408,0.1486,0.1627,0.1829,0.1955,0.2034,0.2019,0.1908,0.188,0.1859,0.1896,0.2099,0.2099,0.2099,0.2099,0.1138,0.1153,0.1219,0.1288,0.1384,0.1489,0.1617,0.18,0.2043,0.215,0.2192,0.2069,0.2052,0.2025,0.2,0.2036,0.2269,0.2269,0.2269,0.1135,0.1155,0.119,0.1264,0.1372,0.1477,0.156,0.1695,0.2066,0.2276,0.2218,0.221,0.2021,0.1993,0.193,0.1894,0.1942,0,0]},{"header":{"parameterUnit":"m.s-1","parameterCategory":2,"la1":30.2992,"la2":30.254,"lo1":-89.0895,"lo2":-89.0443,"dy":0.0025,"dx":0.0025,"nx":19,"ny":19,"refTime":"2026-04-27T21:00:00:Z","depth":"0","parameterNumber":3,"parameterNumberName":"V-component_of_CURRENTS"},"data":[0,0,0,0.0171,0.0171,0.0172,0.0172,0.0111,0.011,0,0,0,0,0,0,0,0,0,0,0,0.0176,0.0177,0.0171,0.0171,0.0172,0.0172,0.0111,0.011,0,0,0,0,0,0,0,0,0,0,0,0.0176,0.0176,0.0177,0.0171,0.0172,0.0172,0.0111,0.0127,0,0,0,0,0,0,0,0,0,0,0.0134,0.0142,0.0176,0.0177,0.0171,0.0172,0.0172,0.0128,0.0126,0.0092,0,0.0096,0,0.0096,0.0104,0.0104,0,0,0,0.0174,0.0144,0.0147,0.0177,0.0171,0.0172,0.0173,0.0127,0.0124,0.0088,0.0096,0.0093,0.0095,0.0104,0.0103,0.0004,0.0004,0,0,0.0174,0.0171,0.015,0.0146,0.0175,0.0172,0.0173,0.0126,0.0121,0.0095,0.0092,0.0094,0.0103,0.0103,0.0005,0.0004,0,0,0,0.0172,0.0171,0.0176,0.0148,0.015,0.0172,0.0173,0.0124,0.0126,0.0092,0.0094,0.0103,0.0102,0.0005,0.0005,0.0047,0,0,0,0.0172,0.0169,0.0176,0.0173,0.0152,0.0144,0.0171,0.013,0.0125,0.0094,0.0103,0.0101,0.0006,0.0005,0.0047,0.0137,0,0,0,0.0176,0.0169,0.0172,0.0174,0.0173,0.0145,0.0146,0.013,0.0125,0.0104,0.0101,0.0006,0.0005,0.0047,0.0134,0.026,0,0,0,0.0169,0.0181,0.0172,0.0184,0.0173,0.0162,0.0146,0.0129,0.0112,0.0102,0.0006,0.0005,0.0047,0.0132,0.0256,0.0334,0.0357,0,0,0.0184,0.0183,0.0191,0.0184,0.0197,0.0162,0.014,0.011,0.0081,0.0018,0.0016,0.0047,0.0134,0.0259,0.0273,0.0299,0,0,0,0.0196,0.0207,0.0208,0.0213,0.0195,0.0182,0.0127,0.0097,0.0054,0.0065,0.0013,0.0068,0.0146,0.0182,0.0202,0.0095,-0.0,-0.0,-0.0,0.022,0.0222,0.0239,0.0235,0.0219,0.0173,0.0165,0.0108,0.0044,0.0023,0.0074,0.0167,0.0198,0.0216,0.0101,0.0003,0.0003,0.0003,0.0003,0.026,0.0275,0.0269,0.0286,0.026,0.0231,0.018,0.0147,0.0167,0.0073,0.0146,0.0189,0.0241,0.011,0.0006,0.0005,0.0005,0.0005,0.0005,0.0286,0.0293,0.0303,0.0325,0.033,0.0287,0.036,0.031,0.0262,0.0314,0.0404,0.0403,0.0325,0.0356,0.0357,0.0358,0.0359,0.0359,0.036,0.0305,0.0318,0.0356,0.0375,0.0397,0.0448,0.0487,0.054,0.057,0.0516,0.0516,0.0335,0.0278,0.0306,0.0374,0.0371,0.037,0.0368,0.0367,0.0348,0.0352,0.0413,0.0448,0.0534,0.0655,0.0692,0.0832,0.0878,0.0918,0.0609,0.0628,0.0657,0.0639,0.0676,0.0837,0.0837,0.0837,0.0837,0.0375,0.0382,0.0474,0.0555,0.0664,0.0753,0.0971,0.1045,0.0935,0.0833,0.0738,0.0602,0.0588,0.0603,0.0586,0.0616,0.0759,0.0758,0.0758,0.0414,0.0431,0.0511,0.0591,0.0717,0.0885,0.1091,0.1192,0.0963,0.0738,0.0576,0.058,0.0353,0.034,0.0333,0.0318,0.0357,0,0]}],[{"header":{"parameterUnit":"m.s-1","parameterCategory":2,"la1":30.2992,"la2":30.254,"lo1":-89.0895,"lo2":-89.0443,"dy":0.0025,"dx":0.0025,"nx":19,"ny":19,"refTime":"2026-04-27T21:00:00:Z","depth":"2","parameterNumber":2,"parameterNumberName":"U-component_of_CURRENTS"},"data":[0,0,0,0.1032,0.1034,0.1122,0.1122,0.1054,0.1053,0,0,0,0,0,0,0,0,0,0,0,0.0998,0.0999,0.1031,0.1034,0.1122,0.1122,0.1054,0.1053,0,0,0,0,0,0,0,0,0,0,0,0.0998,0.0999,0.1,0.1034,0.1122,0.1122,0.1054,0.103,0,0,0,0,0,0,0,0,0,0,0.0966,0.0964,0.0999,0.1,0.1035,0.1122,0.1122,0.1031,0.1031,0.0966,0,0.0994,0,0.1024,0.1045,0.1045,0,0,0,0.1022,0.0964,0.0991,0.1,0.1036,0.1122,0.1079,0.1033,0.1033,0.0966,0.0993,0.0992,0.1022,0.1045,0.1044,0.0925,0.0925,0,0,0.1017,0.1003,0.0992,0.0992,0.1073,0.1076,0.1082,0.1035,0.1034,0.0993,0.0992,0.1021,0.1044,0.1043,0.0925,0.0925,0,0,0,0.1011,0.1,0.1031,0.0994,0.1026,0.1079,0.1086,0.1037,0.1049,0.0991,0.102,0.1043,0.1042,0.0926,0.0925,0.1053,0,0,0,0.1008,0.0997,0.1029,0.102,0.1028,0.1057,0.1088,0.1053,0.1049,0.1021,0.1043,0.1041,0.0926,0.0926,0.1051,0.1106,0,0,0,0.0992,0.0995,0.1012,0.1019,0.1064,0.106,0.107,0.1054,0.1066,0.1045,0.104,0.0927,0.0926,0.1048,0.1101,0.1242,0,0,0,0.0964,0.0996,0.1011,0.1044,0.1064,0.1087,0.1071,0.1082,0.1069,0.1043,0.0926,0.0925,0.1048,0.1098,0.1237,0.1216,0.1236,0,0,0.0987,0.0998,0.1015,0.1031,0.1072,0.1074,0.1084,0.1068,0.1022,0.0928,0.0927,0.1051,0.1101,0.1241,0.1154,0.1177,0,0,0,0.101,0.1029,0.1042,0.107,0.1082,0.111,0.1087,0.1067,0.104,0.1013,0.0993,0.1019,0.1106,0.1079,0.1096,0.092,0.092,0.092,0.0921,0.1017,0.1033,0.1063,0.109,0.1104,0.1113,0.1136,0.1092,0.1038,0.104,0.1081,0.1211,0.1178,0.1192,0.1029,0.103,0.103,0.1031,0.1031,0.1048,0.1059,0.1084,0.1127,0.1144,0.1151,0.116,0.1164,0.1212,0.1113,0.1194,0.1159,0.1219,0.104,0.1038,0.1037,0.1036,0.1035,0.1035,0.1035,0.1044,0.1086,0.1137,0.1182,0.1204,0.128,0.1307,0.1327,0.1404,0.1416,0.1413,0.1359,0.1477,0.1478,0.1478,0.1479,0.148,0.148,0.1004,0.1044,0.1084,0.1152,0.1188,0.1266,0.137,0.1447,0.1552,0.1544,0.1544,0.1362,0.1348,0.1382,0.1493,0.1491,0.1489,0.1488,0.1487,0.0992,0.1015,0.1069,0.1112,0.1209,0.1266,0.1395,0.1566,0.1688,0.1749,0.1634,0.1626,0.1599,0.1581,0.1618,0.1786,0.1786,0.1786,0.1786,0.0967,0.0986,0.1059,0.1122,0.1192,0.1269,0.1357,0.1449,0.1596,0.1603,0.161,0.146,0.1454,0.1408,0.1394,0.1422,0.1539,0.1538,0.1537,0.096,0.0988,0.1028,0.1107,0.1186,0.125,0.1277,0.1296,0.1394,0.1519,0.1479,0.1786,0.1578,0.1563,0.1495,0.1472,0.1519,0,0]},{"header":{"parameterUnit":"m.s-1","parameterCategory":2,"la1":30.2992,"la2":30.254,"lo1":-89.0895,"lo2":-89.0443,"dy":0.0025,"dx":0.0025,"nx":19,"ny":19,"refTime":"2026-04-27T21:00:00:Z","depth":"2","parameterNumber":3,"parameterNumberName":"V-component_of_CURRENTS"},"data":[0,0,0,0.0005,0.0005,0.0019,0.0019,-0.0013,-0.0014,0,0,0,0,0,0,0,0,0,0,0,0.0011,0.0011,0.0005,0.0005,0.0019,0.0019,-0.0013,-0.0014,0,0,0,0,0,0,0,0,0,0,0,0.0011,0.0011,0.0011,0.0005,0.0019,0.0019,-0.0013,-0.0008,0,0,0,0,0,0,0,0,0,0,-0.0014,-0.001,0.0011,0.0011,0.0005,0.0019,0.0019,-0.0007,-0.0008,-0.0037,0,-0.0033,0,-0.0035,-0.0018,-0.0018,0,0,0,0.0016,-0.0009,-0.0005,0.0011,0.0005,0.0019,0.0016,-0.0007,-0.0009,-0.0039,-0.0033,-0.0034,-0.0036,-0.0018,-0.0019,-0.0101,-0.0101,0,0,0.0015,0.0011,-0.0004,-0.0006,0.0009,0.0015,0.0016,-0.0008,-0.0011,-0.0033,-0.0035,-0.0036,-0.0019,-0.0019,-0.0101,-0.0101,0,0,0,0.0006,0.0011,0.0016,-0.0005,-0.0005,0.0015,0.0016,-0.0009,-0.0007,-0.0036,-0.0037,-0.0019,-0.002,-0.01,-0.0101,-0.0078,0,0,0,0.0006,0.0004,0.0016,0.0013,-0.0004,-0.0002,0.0015,-0.0005,-0.0008,-0.0036,-0.0019,-0.002,-0.01,-0.01,-0.0078,-0.001,0,0,0,0.001,0.0004,0.0007,0.0013,0.0013,-0.0001,0.0,-0.0005,-0.001,-0.0018,-0.0021,-0.0099,-0.01,-0.0077,-0.0012,0.0093,0,0,0,0.0005,0.0013,0.0007,0.0012,0.0013,0.0006,0.0001,-0.0008,-0.0015,-0.0019,-0.01,-0.0101,-0.0077,-0.0013,0.009,0.0099,0.0112,0,0,0.0014,0.0014,0.0017,0.0012,0.002,0.0005,-0.0015,-0.0026,-0.0043,-0.0093,-0.0094,-0.0078,-0.0012,0.0092,0.004,0.0056,0,0,0,0.0019,0.0028,0.0029,0.0029,0.0016,0.0012,-0.0022,-0.0045,-0.0074,-0.0055,-0.0105,-0.0063,0.0002,-0.0,0.0011,-0.0106,-0.0105,-0.0105,-0.0105,0.0043,0.0039,0.0049,0.0043,0.0031,-0.0002,-0.0005,-0.0048,-0.0091,-0.0108,-0.0068,0.0002,-0.0008,0.0002,-0.0125,-0.0125,-0.0125,-0.0125,-0.0125,0.0075,0.0083,0.007,0.0083,0.0061,0.004,-0.0005,-0.0027,-0.0012,-0.0081,-0.0019,-0.0006,0.0017,-0.0123,-0.0124,-0.0124,-0.0124,-0.0124,-0.0124,0.0101,0.0102,0.0113,0.0124,0.0125,0.0089,0.0144,0.0098,0.0059,0.0098,0.0147,0.0146,0.0093,0.0139,0.014,0.0141,0.0141,0.0142,0.0142,0.0124,0.0131,0.0167,0.0177,0.0193,0.023,0.0252,0.0287,0.028,0.0221,0.022,0.0093,0.0085,0.0109,0.0154,0.0152,0.015,0.0149,0.0148,0.0159,0.0173,0.0224,0.0255,0.0316,0.0411,0.0423,0.0497,0.0519,0.0528,0.0297,0.0289,0.0313,0.0302,0.0331,0.0432,0.0432,0.0432,0.0432,0.0187,0.0196,0.0287,0.0355,0.0434,0.0496,0.0651,0.0631,0.0538,0.0414,0.0414,0.0302,0.0292,0.0308,0.0296,0.0323,0.0422,0.0422,0.0422,0.022,0.024,0.0321,0.0396,0.0487,0.0611,0.0755,0.0751,0.0525,0.0418,0.0381,0.0437,0.0268,0.0253,0.027,0.0255,0.0294,0,0]}],[{"header":{"parameterUnit":"m.s-1","parameterCategory":2,"la1":30.2992,"la2":30.254,"lo1":-89.0895,"lo2":-89.0443,"dy":0.0025,"dx":0.0025,"nx":19,"ny":19,"refTime":"2026-04-27T21:00:00:Z","depth":"4","parameterNumber":2,"parameterNumberName":"U-component_of_CURRENTS"},"data":[0,0,0,-0.0178,-0.0179,-0.0186,-0.0186,-0.0117,-0.0117,0,0,0,0,0,0,0,0,0,0,0,-0.0188,-0.0188,-0.0178,-0.0179,-0.0186,-0.0186,-0.0118,-0.0117,0,0,0,0,0,0,0,0,0,0,0,-0.0187,-0.0188,-0.0189,-0.0179,-0.0186,-0.0186,-0.0118,-0.013,0,0,0,0,0,0,0,0,0,0,-0.0132,-0.0137,-0.0188,-0.0189,-0.0179,-0.0186,-0.0186,-0.0131,-0.0129,-0.0094,0,-0.0113,0,-0.0109,-0.0111,-0.0111,0,0,0,-0.0172,-0.0139,-0.0157,-0.0189,-0.0179,-0.0186,-0.0181,-0.0131,-0.0128,-0.0091,-0.0112,-0.0109,-0.0108,-0.011,-0.011,-0.005,-0.005,0,0,-0.0172,-0.0165,-0.016,-0.0157,-0.0201,-0.018,-0.0181,-0.013,-0.0124,-0.0111,-0.0108,-0.0106,-0.011,-0.0109,-0.005,-0.005,0,0,0,-0.0175,-0.0165,-0.0186,-0.0159,-0.0164,-0.0181,-0.0181,-0.0126,-0.0139,-0.0107,-0.0106,-0.0109,-0.0108,-0.005,-0.005,0.0046,0,0,0,-0.0174,-0.0168,-0.0186,-0.0179,-0.0167,-0.0151,-0.0178,-0.0143,-0.0137,-0.0106,-0.0109,-0.0107,-0.005,-0.005,0.0043,0.01,0,0,0,-0.0184,-0.0167,-0.0179,-0.0179,-0.0186,-0.0152,-0.0161,-0.0142,-0.0135,-0.0111,-0.0107,-0.005,-0.005,0.0041,0.0095,0.0185,0,0,0,-0.0161,-0.0183,-0.018,-0.019,-0.0187,-0.0195,-0.0162,-0.0132,-0.011,-0.0109,-0.005,-0.005,0.004,0.0092,0.0181,0.0089,0,0,0,-0.0178,-0.0185,-0.0189,-0.0186,-0.0194,-0.0192,-0.0171,-0.0114,-0.0099,-0.006,-0.0059,0.0044,0.0095,0.0184,0.009,0,0,0,0,-0.0186,-0.019,-0.0191,-0.0191,-0.0198,-0.0172,-0.0149,-0.0101,-0.0021,-0.0089,0.0017,0.0046,0.0101,0.0032,-0.005,-0.005,-0.005,-0.005,-0.005,-0.0166,-0.0176,-0.0183,-0.0196,-0.0195,-0.0146,-0.0095,-0.0033,-0.002,0.0042,0.0104,0.0211,0.0136,0.0071,0.0072,0.0072,0.0072,0.0073,0.0073,-0.0157,-0.0169,-0.0168,-0.018,-0.0163,-0.0128,-0.0018,0.0046,0.0194,0.0165,0.0214,0.011,0.0082,0.008,0.0079,0.0078,0.0077,0.0076,0.0076,-0.014,-0.016,-0.0157,-0.0161,-0.0106,-0.0052,0.0085,0.0201,0.0293,0.0362,0.0323,0.029,0.0308,0.0416,0.0417,0.0417,0.0418,0.0418,0.0419,-0.0133,-0.0144,-0.0136,-0.0122,-0.0101,0.0005,0.0208,0.0291,0.0401,0.0433,0.0427,0.0327,0.0316,0.0327,0.0429,0.0427,0.0426,0.0425,0.0424,-0.0138,-0.0135,-0.0123,-0.0115,-0.0054,0.0019,0.0188,0.0369,0.0485,0.0524,0.0459,0.0454,0.0424,0.0411,0.0424,0.0559,0.0558,0.0557,0,-0.0137,-0.0135,-0.0111,-0.0095,-0.005,0.002,0.0168,0.0288,0.0416,0.0418,0.0441,0.036,0.0358,0.0309,0.0297,0.0304,0,0,0,-0.0124,-0.0128,-0.0106,-0.0099,-0.0056,0.0072,0.0214,0.0293,0.0381,0.0458,0.0539,0.0544,0.0361,0.0459,0.0401,0.0388,0.0404,0,0]},{"header":{"parameterUnit":"m.s-1","parameterCategory":2,"la1":30.2992,"la2":30.254,"lo1":-89.0895,"lo2":-89.0443,"dy":0.0025,"dx":0.0025,"nx":19,"ny":19,"refTime":"2026-04-27T21:00:00:Z","depth":"4","parameterNumber":3,"parameterNumberName":"V-component_of_CURRENTS"},"data":[0,0,0,0.0063,0.0063,0.0066,0.0066,0.0123,0.0124,0,0,0,0,0,0,0,0,0,0,0,0.0065,0.0065,0.0063,0.0063,0.0066,0.0066,0.0123,0.0124,0,0,0,0,0,0,0,0,0,0,0,0.0065,0.0065,0.0065,0.0063,0.0066,0.0067,0.0123,0.0111,0,0,0,0,0,0,0,0,0,0,0.0103,0.0079,0.0065,0.0065,0.0062,0.0066,0.0067,0.011,0.0112,0.0132,0,0.0123,0,0.0118,0.0128,0.0128,0,0,0,0.0078,0.0078,0.0087,0.0065,0.0062,0.0066,0.0069,0.0111,0.0113,0.0135,0.0123,0.0125,0.0118,0.0128,0.0128,0.0165,0.0165,0,0,0.0077,0.0062,0.0086,0.0088,0.0051,0.0069,0.0069,0.0112,0.0105,0.0123,0.0126,0.0119,0.0128,0.0129,0.0165,0.0165,0,0,0,0.0067,0.0061,0.0069,0.0086,0.0079,0.0068,0.0069,0.0103,0.0107,0.0126,0.012,0.0129,0.0129,0.0165,0.0165,0.0084,0,0,0,0.0067,0.0054,0.0069,0.0059,0.0077,0.008,0.0059,0.0105,0.0109,0.012,0.0129,0.013,0.0165,0.0165,0.0086,0.0063,0,0,0,0.0067,0.0054,0.0053,0.0059,0.0054,0.0079,0.0086,0.0106,0.0105,0.0128,0.013,0.0165,0.0165,0.0088,0.0066,0.002,0,0,0,0.0055,0.0051,0.0052,0.0045,0.0054,0.0083,0.0085,0.0103,0.0121,0.0129,0.0165,0.0165,0.0089,0.0069,0.0022,0.0128,0,0,0,0.005,0.005,0.0049,0.005,0.0073,0.0084,0.0099,0.0116,0.0128,0.0157,0.0158,0.0085,0.0067,0.002,0.0128,0,0,0,0,0.0047,0.0046,0.0054,0.006,0.0084,0.0085,0.0114,0.0105,0.0093,0.0135,0.0108,0.01,0.0072,0.0143,0.0165,0.0165,0.0165,0.0165,0.0165,0.0032,0.0046,0.0053,0.0072,0.0084,0.0096,0.0078,0.0073,0.0099,0.0068,0.005,-0.0015,0.0059,0.0064,0.0063,0.0063,0.0063,0.0062,0.0062,0.0036,0.0036,0.0048,0.0059,0.0064,0.0068,0.0038,0.0018,-0.0029,0.0003,-0.0021,0.0074,0.0055,0.0056,0.0057,0.0058,0.0059,0.0059,0.006,0.0026,0.0028,0.0029,0.0039,0.0021,0.0021,-0.0015,-0.0057,-0.0098,-0.0134,-0.005,-0.0065,-0.0078,-0.015,-0.0151,-0.0151,-0.0151,-0.0151,-0.0152,0.0012,0.0014,0.002,0.0017,0.001,-0.0012,-0.006,-0.0091,-0.0142,-0.0115,-0.0154,-0.0087,-0.008,-0.0088,-0.0157,-0.0156,-0.0155,-0.0155,-0.0154,0.0,-0.0006,0.0011,0.0014,0.0016,-0.0001,-0.004,-0.0073,-0.0113,-0.0143,-0.0106,-0.0107,-0.0067,-0.0061,-0.0067,-0.0133,-0.0131,-0.013,0,-0.0014,-0.0011,0.0019,0.0041,0.0048,0.0022,0.0032,-0.001,-0.0086,-0.0063,-0.0158,-0.0116,-0.0115,-0.0068,-0.006,-0.0066,0,0,0,-0.0017,0.0002,0.0031,0.0065,0.0072,0.0063,0.0037,0.0034,-0.0049,-0.0068,-0.0103,-0.011,-0.0125,-0.0171,-0.0112,-0.0104,-0.0114,0,0]}]]